DW1824 Weather Reports


time (UTC)temp
C
wind
direction
speed
KPH
gust
KPH
rain 1hr
cm
rain 24hr
cm
rain mn
cm
humidity
%
barometer
mb
20260904105341 26 131 0.0 0.0 0.00 0.00 0.00 92 1013.3
20260904104325 26 143 0.0 4.8 0.00 0.00 0.00 92 1013.4
20260904103327 26 126 0.0 4.8 0.00 0.00 0.00 92 1013.1
20260904102332 26 132 3.2 4.8 0.00 0.00 0.00 92 1013.1
20260904101357 26 127 1.6 4.8 0.00 0.00 0.00 92 1013.0
20260904100339 26 133 1.6 4.8 0.00 0.00 0.00 92 1013.0
20260904095344 26 112 1.6 4.8 0.00 0.00 0.00 92 1012.9
20260904094331 26 123 0.0 0.0 0.00 0.00 0.00 92 1012.8
20260904093337 26 123 0.0 0.0 0.00 0.00 0.00 92 1012.7
20260904091326 26 123 0.0 0.0 0.00 0.00 0.00 93 1012.7
20260904090330 26 123 0.0 0.0 0.00 0.00 0.00 93 1012.7
20260904085357 26 123 0.0 0.0 0.00 0.00 0.00 92 1012.8
20260904084341 26 123 0.0 0.0 0.00 0.00 0.00 92 1012.9
20260904083338 26 123 0.0 0.0 0.00 0.00 0.00 92 1013.0
20260904082344 26 123 0.0 0.0 0.00 0.00 0.00 92 1013.0
20260904081332 26 128 0.0 0.0 0.00 0.00 0.00 92 1013.0
20260904080335 26 128 0.0 1.6 0.00 0.00 0.00 92 1013.0
20260904075341 26 134 1.6 3.2 0.00 0.00 0.00 92 1013.0
20260904074326 26 128 1.6 4.8 0.00 0.00 0.00 92 1013.1
20260904073328 26 129 3.2 4.8 0.00 0.00 0.00 92 1013.1
20260904072333 26 120 3.2 4.8 0.00 0.00 0.00 92 1013.1
20260904071337 26 120 3.2 4.8 0.00 0.00 0.00 92 1013.2
20260904070340 26 131 0.0 0.0 0.00 0.00 0.00 91 1013.4
20260904065327 26 130 0.0 1.6 0.00 0.00 0.00 91 1013.5
20260904064332 26 131 0.0 0.0 0.00 0.00 0.00 91 1013.6
20260904063331 26 131 0.0 1.6 0.00 0.00 0.00 91 1013.6
20260904062338 26 130 0.0 3.2 0.00 0.00 0.00 91 1013.5
20260904061341 27 128 0.0 3.2 0.00 0.00 0.00 91 1013.4
20260904060403 27 128 1.6 3.2 0.00 0.00 0.00 91 1013.4
20260904055327 27 122 0.0 4.8 0.00 0.00 0.00 90 1013.4
20260904054330 27 130 3.2 4.8 0.00 0.00 0.00 91 1013.3
20260904053330 27 131 1.6 3.2 0.00 0.00 0.00 91 1013.2
20260904052334 27 140 0.0 3.2 0.00 0.00 0.00 90 1013.1
20260904051341 27 149 1.6 6.4 0.00 0.00 0.00 90 1013.1
20260904050404 27 137 1.6 4.8 0.00 0.00 0.00 90 1013.1
20260904045348 27 137 3.2 4.8 0.00 0.00 0.13 90 1013.1
20260904044332 27 141 3.2 4.8 0.00 0.00 0.13 90 1013.1
20260904043355 27 147 0.0 0.0 0.00 0.00 0.13 90 1013.2
20260904042340 27 157 0.0 4.8 0.00 0.00 0.13 90 1013.2
20260904041344 27 139 1.6 6.4 0.00 0.00 0.13 90 1013.3
20260904040327 27 132 4.8 6.4 0.00 0.00 0.13 90 1013.3
20260904035333 27 128 3.2 6.4 0.00 0.00 0.13 90 1013.3
20260904034324 27 127 3.2 11.3 0.00 0.00 0.13 90 1013.3
20260904033328 27 144 3.2 6.4 0.00 0.00 0.13 90 1013.3
20260904032332 27 129 3.2 9.7 0.00 0.00 0.13 90 1013.3
20260904031339 26 129 3.2 6.4 0.00 0.00 0.13 90 1013.3
20260904030341 26 135 3.2 4.8 0.00 0.00 0.13 90 1013.2
20260904025326 26 135 0.0 0.0 0.00 0.00 0.05 90 1013.1
20260904024335 26 128 0.0 0.0 0.00 0.00 0.05 89 1013.1
20260904023339 26 130 0.0 1.6 0.00 0.00 0.05 89 1013.0
20260904022344 26 143 1.6 6.4 0.00 0.00 0.05 89 1012.9
20260904021328 26 133 3.2 6.4 0.00 0.00 0.05 88 1012.9
20260904020333 26 134 0.0 1.6 0.00 0.00 0.05 88 1012.8
20260904015338 26 135 0.0 4.8 0.00 0.00 0.05 88 1012.7
20260904014344 26 172 3.2 4.8 0.00 0.00 0.05 87 1012.5
20260904013344 26 135 0.0 0.0 0.00 0.00 0.05 87 1012.4
20260904012333 26 107 0.0 1.6 0.00 0.00 0.05 86 1012.4
20260904011358 26 112 0.0 3.2 0.00 0.00 0.05 86 1012.4
20260904010339 26 116 1.6 3.2 0.00 0.00 0.05 85 1012.3
20260904005325 27 82 0.0 3.2 0.00 0.00 0.05 85 1012.3
20260904004331 27 144 0.0 3.2 0.00 0.00 0.05 85 1012.3
20260904003333 27 133 0.0 3.2 0.00 0.00 0.05 85 1012.2
20260904002336 27 145 0.0 3.2 0.00 0.00 0.05 85 1012.1
20260904001341 27 116 0.0 1.6 0.00 0.00 0.05 85 1012.1
20260904000328 27 110 1.6 8.0 0.00 0.00 0.05 84 1012.3
20260903235353 27 53 1.6 4.8 0.00 0.05 0.05 84 1012.3
20260903234338 27 329 0.0 1.6 0.00 0.05 0.05 83 1012.4
20260903233400 27 44 0.0 0.0 0.00 0.05 0.05 85 1012.5
20260903232404 27 57 0.0 3.2 0.00 0.05 0.05 85 1012.5
20260903231326 26 71 0.0 0.0 0.00 0.05 0.05 86 1012.5
20260903230329 26 116 0.0 4.8 0.00 0.05 0.05 86 1012.6
20260903225354 26 97 0.0 3.2 0.00 0.10 0.05 86 1012.7
20260903224339 26 141 0.0 3.2 0.00 0.10 0.05 86 1012.7
20260903223326 26 138 0.0 3.2 0.00 0.10 0.05 85 1012.7
20260903222350 26 118 0.0 1.6 0.00 0.10 0.05 84 1012.3
20260903221334 26 24 0.0 3.2 0.00 0.10 0.05 86 1012.3
20260903220338 26 62 0.0 4.8 0.00 0.10 0.05 86 1012.3
20260903215343 26 117 0.0 3.2 0.00 0.10 0.05 86 1012.5
20260903214327 26 91 0.0 1.6 0.00 0.10 0.05 86 1012.6
20260903213329 26 108 1.6 3.2 0.00 0.10 0.05 86 1012.7
20260903212334 26 99 0.0 1.6 0.00 0.10 0.05 87 1012.8
20260903211358 25 126 0.0 1.6 0.00 0.10 0.05 87 1013.0
20260903210342 25 126 0.0 0.0 0.00 0.10 0.05 89 1012.9
20260903205327 25 110 0.0 0.0 0.00 0.10 0.05 89 1013.4
20260903204333 25 75 0.0 0.0 0.00 0.10 0.05 88 1013.6
20260903203332 25 41 0.0 8.0 0.00 0.10 0.05 89 1013.6
20260903202338 25 119 6.4 22.5 0.00 0.10 0.05 88 1013.7
20260903201401 24 129 4.8 11.3 0.00 0.10 0.05 88 1013.8
20260903200341 25 133 11.3 17.7 0.00 0.10 0.05 85 1014.4
20260903195329 25 116 4.8 12.9 0.00 0.10 0.05 81 1014.6
20260903194334 26 123 4.8 16.1 0.00 0.10 0.05 78 1014.6
20260903193336 26 103 4.8 22.5 0.00 0.10 0.05 76 1014.2
20260903192341 27 91 4.8 9.7 0.00 0.10 0.05 75 1014.1
20260903191326 28 128 4.8 20.9 0.00 0.10 0.05 70 1014.1
20260903190348 31 272 1.6 3.2 0.00 0.10 0.05 73 1013.6
20260903185354 31 26 0.0 4.8 0.00 0.10 0.05 72 1013.5
20260903184339 32 34 0.0 6.4 0.00 0.10 0.05 70 1013.4
20260903183324 32 360 0.0 3.2 0.00 0.10 0.05 69 1013.4
20260903182349 32 269 0.0 1.6 0.00 0.10 0.05 65 1013.4
20260903181352 32 264 0.0 3.2 0.00 0.10 0.05 65 1013.6
20260903180334 32 278 0.0 3.2 0.00 0.10 0.05 65 1013.8
20260903175338 32 257 1.6 9.7 0.00 0.10 0.05 66 1014.0
20260903174403 32 193 1.6 4.8 0.00 0.10 0.05 68 1013.8
20260903173404 32 168 1.6 8.0 0.00 0.10 0.05 69 1013.9
20260903172326 31 182 0.0 8.0 0.00 0.10 0.05 71 1013.9
20260903171330 31 177 0.0 3.2 0.00 0.10 0.05 72 1014.2
20260903170351 31 187 0.0 4.8 0.00 0.10 0.05 75 1014.4
20260903165337 30 185 0.0 0.0 0.00 0.10 0.05 75 1014.6
20260903164325 30 136 0.0 4.8 0.00 0.10 0.05 76 1014.7
20260903163326 30 145 1.6 4.8 0.00 0.10 0.05 78 1014.8
20260903162331 30 164 0.0 3.2 0.00 0.10 0.05 81 1014.6
20260903161336 30 185 1.6 4.8 0.00 0.10 0.05 81 1014.8
20260903160338 30 150 0.0 4.8 0.00 0.10 0.05 81 1014.7
20260903155326 30 207 1.6 6.4 0.00 0.10 0.05 81 1014.5
20260903154335 30 172 1.6 9.7 0.00 0.10 0.05 80 1014.5
20260903153338 30 182 1.6 6.4 0.00 0.10 0.05 82 1014.6
20260903152343 30 172 3.2 12.9 0.00 0.10 0.05 82 1014.7
20260903151328 29 151 3.2 6.4 0.00 0.10 0.05 83 1014.7
20260903150330 29 184 3.2 8.0 0.00 0.10 0.05 82 1014.7
20260903145336 29 171 1.6 9.7 0.00 0.10 0.05 83 1014.6
20260903144340 29 145 3.2 8.0 0.00 0.10 0.05 82 1014.6
20260903143342 30 156 0.0 9.7 0.00 0.10 0.05 83 1014.6
20260903142331 29 187 0.0 0.0 0.00 0.10 0.05 83 1014.6
20260903141337 29 176 0.0 0.0 0.00 0.10 0.05 84 1014.5
20260903140341 28 149 0.0 4.8 0.00 0.10 0.05 86 1014.5
20260903135326 28 131 0.0 6.4 0.00 0.10 0.05 86 1014.6
20260903134330 28 139 1.6 4.8 0.00 0.10 0.05 87 1014.5
20260903133332 28 141 1.6 4.8 0.00 0.10 0.05 87 1014.4
20260903132338 27 151 0.0 3.2 0.00 0.10 0.05 88 1014.3
20260903131328 27 151 0.0 0.0 0.00 0.10 0.05 88 1014.3
20260903130330 27 168 0.0 0.0 0.00 0.10 0.05 89 1014.2
20260903125336 27 185 0.0 4.8 0.00 0.10 0.05 89 1014.1
20260903124343 27 160 0.0 3.2 0.00 0.10 0.05 89 1014.0
20260903123325 27 170 0.0 3.2 0.00 0.10 0.05 89 1013.9
20260903122330 27 157 0.0 4.8 0.00 0.10 0.05 88 1013.8
20260903121335 27 148 0.0 3.2 0.00 0.10 0.05 88 1013.8
20260903120338 27 146 0.0 6.4 0.00 0.10 0.05 88 1013.7
20260903115328 27 159 0.0 3.2 0.00 0.10 0.05 88 1013.7
20260903114332 27 181 0.0 3.2 0.00 0.10 0.05 88 1013.7
20260903113336 27 187 1.6 4.8 0.00 0.10 0.05 88 1013.6
20260903112342 27 139 0.0 4.8 0.00 0.10 0.05 88 1013.6
20260903111327 27 151 1.6 3.2 0.00 0.10 0.05 87 1013.7
20260903110328 27 189 0.0 3.2 0.00 0.10 0.05 87 1013.8